Wind_Speed
43 44 43 43 43 43 43 43 43 43 43 42 43 43 44 44 45 45 45 44 44 44 44 44 45 45 45 45 45 45 45 45 45 45 44 43 43 43 42 41 41 40 40
43 44 44 44 44 44 45 44 44 44 44 44 44 44 45 45 44 45 46 46 46 46 46 45 46 46 46 46 46 46 46 46 45 45 45 45 44 44 44 43 43 43 42
43 43 44 44 45 46 46 46 46 46 45 45 45 45 45 45 45 45 46 47 47 47 47 46 47 47 47 47 46 47 46 46 46 46 46 46 46 46 45 44 45 45 44
42 43 44 44 45 46 47 47 47 47 47 46 46 46 45 45 46 46 46 47 48 48 48 47 47 47 47 47 47 47 47 47 47 47 47 47 47 47 46 46 46 47 47
42 43 43 44 45 46 47 47 47 47 47 47 47 47 46 46 47 47 47 47 48 48 48 48 48 48 47 47 48 48 48 48 48 48 48 48 47 47 47 46 47 47 48
43 43 44 45 45 46 47 47 47 47 47 47 47 48 48 48 48 48 48 48 48 48 48 49 49 48 48 48 48 47 47 48 48 48 48 48 48 47 47 47 47 47 47
42 42 44 45 45 46 46 46 47 47 47 47 47 48 48 48 48 48 48 48 48 48 49 49 49 49 48 48 48 48 48 48 49 49 49 49 48 48 48 48 47 46 46
42 42 43 44 45 45 46 46 47 47 47 48 48 48 49 49 48 49 49 49 48 48 48 48 48 48 48 48 48 48 49 49 50 50 50 50 50 50 49 49 49 49 48
41 42 43 44 44 45 46 46 46 47 48 48 48 49 49 50 50 49 50 49 49 48 48 47 47 47 48 49 50 50 49 50 50 51 51 51 51 51 51 51 51 51 50
40 41 42 42 43 44 45 46 46 47 48 48 48 48 49 50 49 49 50 51 50 50 49 49 49 49 49 49 49 49 49 50 51 51 52 52 52 52 52 53 53 53 53
40 41 42 42 43 43 44 44 45 46 47 47 47 48 49 50 50 49 50 51 51 51 50 50 51 51 51 51 51 51 52 52 52 53 53 53 53 53 53 54 54 54 55
40 40 41 42 42 43 43 44 44 45 46 47 47 48 48 49 49 49 50 50 51 51 51 51 52 52 51 52 53 53 53 54 54 54 54 54 54 55 55 55 55 56 56
39 39 40 42 43 43 44 44 44 44 45 45 46 47 47 48 48 49 49 50 50 51 52 52 52 52 52 52 52 52 53 54 55 56 55 55 56 56 56 56 56 56 57
38 38 38 40 42 42 43 43 43 43 44 44 44 45 46 47 48 49 49 49 49 51 52 53 54 54 54 54 54 54 54 54 55 56 56 56 57 56 56 56 56 57 57
37 37 37 38 39 40 41 42 42 43 43 43 44 45 46 47 47 49 49 49 50 51 52 54 55 55 55 56 56 56 56 55 55 56 56 57 57 57 57 57 57 57 58
37 37 38 38 39 39 40 40 40 41 42 43 44 45 45 46 46 47 48 49 49 50 51 53 54 55 56 57 57 57 57 57 57 57 58 58 57 57 57 58 58 58 58
37 37 36 36 36 37 38 38 38 39 39 41 42 42 43 44 45 45 46 47 47 48 49 50 51 52 53 54 56 57 58 58 58 58 59 59 58 58 58 58 58 58 59
37 37 36 35 35 35 36 36 37 37 38 38 39 40 41 42 42 43 44 45 46 47 47 48 49 50 50 52 53 54 56 57 57 57 58 58 58 58 59 59 58 58 58
35 36 36 36 36 36 36 35 35 36 37 38 38 39 40 41 41 42 42 43 44 45 45 46 48 49 49 50 52 53 54 55 56 56 57 57 57 58 59 59 59 58 57
35 34 35 36 37 37 37 36 36 36 37 37 38 39 40 41 41 41 42 43 43 43 44 45 46 47 48 49 50 51 52 53 54 55 56 57 57 57 57 58 57 57 56
35 35 35 35 35 36 36 37 37 37 37 37 38 38 39 39 40 41 41 42 42 43 43 43 44 45 46 46 47 49 50 51 52 53 54 56 56 57 56 56 56 56 56
35 35 35 35 35 35 35 36 36 37 36 36 37 38 39 39 39 40 40 40 42 42 42 42 43 43 44 45 47 48 49 50 51 52 53 54 55 55 55 55 55 55 55
34 34 34 34 35 35 35 35 35 36 36 36 36 37 38 38 38 38 38 39 40 41 42 42 43 43 44 45 46 47 48 48 49 50 51 52 52 53 54 54 54 54 55
32 33 33 33 33 34 34 34 34 34 34 34 35 36 36 36 36 36 37 38 39 40 42 43 43 44 44 44 45 46 47 48 49 49 49 49 50 51 52 53 53 54 54
31 32 32 32 32 32 33 33 34 34 34 35 35 35 35 36 36 36 36 37 38 39 40 41 42 43 43 43 44 45 46 47 47 47 47 47 48 49 50 51 52 52 53
31 31 31 31 32 32 33 33 33 34 34 34 34 35 35 35 35 36 36 37 37 38 39 40 40 41 41 42 42 43 43 43 44 45 45 46 46 47 48 49 49 50 51
Wind_Direction
257 257 257 257 257 257 258 258 258 259 260 261 261 261 260 260 259 259 258 258 257 258 258 258 259 259 259 260 260 259 259 259 260 260 260 261 262 262 261 261 261 260 260
257 257 257 257 257 257 258 258 259 260 261 261 261 261 261 260 260 259 259 259 259 259 259 259 259 259 259 259 259 259 259 259 260 260 261 260 260 260 261 261 260 260 260
258 258 258 257 257 257 257 259 260 261 261 262 262 261 261 260 260 259 259 260 260 260 260 259 260 259 259 259 258 258 257 258 259 259 260 260 259 259 260 260 260 260 260
260 259 258 258 257 257 258 258 259 260 261 262 262 262 262 261 261 260 260 260 260 260 260 260 260 260 259 258 257 257 257 258 259 259 260 260 260 259 259 260 260 261 261
261 260 260 260 259 259 259 260 260 260 261 262 262 262 262 262 262 261 261 261 261 261 261 261 260 260 259 259 259 258 257 258 258 259 260 260 261 261 260 260 260 261 261
262 261 261 261 260 260 260 261 261 261 261 262 262 261 261 262 262 262 262 261 261 262 261 261 261 260 259 259 259 258 257 257 258 259 260 260 260 260 260 260 260 261 262
264 263 262 261 261 260 260 260 260 261 261 262 262 261 260 261 262 262 262 262 262 262 261 261 260 259 259 259 259 258 258 258 258 259 259 260 260 260 260 261 260 260 262
265 264 264 263 262 260 259 259 260 260 261 261 260 260 260 260 262 262 262 262 262 261 261 261 260 259 259 259 259 259 259 259 258 258 259 260 261 261 261 262 262 261 262
267 266 265 264 263 261 260 259 260 260 261 260 260 260 259 259 261 261 261 260 260 260 259 259 259 259 259 259 258 259 259 259 259 260 260 261 261 261 262 262 263 263 263
267 266 265 264 263 262 261 261 261 261 261 261 261 260 260 260 261 261 260 259 259 259 259 259 258 259 259 259 259 259 259 259 260 260 261 261 261 262 262 263 264 264 265
268 267 266 264 263 263 262 262 261 261 262 261 261 261 261 260 260 260 260 259 258 258 258 258 258 259 259 260 261 261 261 261 261 262 262 262 262 262 263 264 265 265 266
269 268 267 265 264 263 263 262 262 262 263 262 262 262 261 261 260 260 260 259 258 259 259 259 259 259 259 260 260 260 261 261 261 262 262 262 262 262 263 265 265 266 267
270 267 266 265 264 264 263 263 263 264 264 264 263 262 262 261 261 261 262 260 259 259 259 259 259 259 259 260 261 261 261 261 261 261 262 262 262 263 264 265 266 267 267
270 269 268 266 265 265 265 265 265 265 265 265 264 263 262 262 263 263 263 262 260 259 260 260 259 259 260 261 261 261 261 261 262 262 262 262 263 264 265 265 266 267 267
270 269 268 269 268 267 267 266 266 265 265 265 264 264 264 264 264 264 264 264 263 262 261 261 261 261 262 262 262 261 261 261 261 262 263 264 264 265 265 266 266 267 268
271 270 270 270 270 269 268 269 268 268 266 265 264 265 265 265 266 265 265 264 264 263 262 263 263 263 263 263 262 262 262 262 262 262 263 264 264 265 265 266 266 267 268
272 272 272 272 271 270 270 269 269 268 267 266 266 266 266 266 266 266 266 265 264 264 264 264 264 265 265 264 264 263 263 263 264 264 265 265 265 265 265 265 266 268 268
274 274 273 272 272 271 270 270 269 268 267 267 267 268 267 267 267 266 266 265 265 266 266 265 265 266 265 265 264 264 264 264 264 265 265 265 265 265 265 266 266 267 267
276 274 274 273 273 272 271 270 270 269 269 269 268 268 269 269 269 268 268 267 267 267 268 268 267 267 267 266 266 265 265 265 265 265 265 265 265 265 266 266 266 267 267
278 277 275 274 274 273 272 272 271 272 272 271 270 270 270 270 269 270 269 269 268 269 270 270 270 269 268 267 266 266 266 266 266 266 266 265 265 265 266 266 266 266 267
277 277 277 276 274 273 273 272 273 273 273 272 272 272 272 271 271 272 272 271 270 271 271 272 272 270 270 269 268 269 269 269 268 267 266 266 265 265 266 266 266 266 266
278 277 277 277 276 275 274 273 274 274 274 273 272 272 272 272 272 273 273 272 272 272 272 273 273 272 271 270 270 271 271 271 270 268 267 266 266 265 265 265 265 266 266
279 278 277 277 277 277 276 275 275 275 274 274 274 274 274 273 274 274 274 274 273 272 272 273 273 273 274 273 272 271 271 271 271 269 268 267 267 266 265 265 266 266 266
281 279 279 278 278 278 277 276 276 276 275 275 275 275 275 275 275 275 276 276 276 275 274 274 274 275 275 275 274 273 272 271 272 271 270 269 268 266 265 264 265 266 266
283 281 279 279 279 278 278 277 277 277 276 276 276 275 276 276 276 276 277 277 277 278 277 277 276 276 276 276 275 275 274 273 272 271 270 270 269 267 266 265 265 265 265
286 283 281 279 279 279 278 277 277 277 276 276 276 276 276 277 277 278 278 279 280 279 279 279 278 277 277 277 277 277 276 274 274 273 272 271 271 269 268 267 266 265 264
Height
5692 5694 5695 5697 5699 5700 5702 5703 5705 5706 5707 5708 5709 5710 5711 5712 5712 5713 5714 5715 5716 5718 5720 5722 5723 5725 5728 5730 5732 5734 5736 5739 5741 5743 5745 5747 5748 5750 5752 5753 5755 5756 5758
5681 5683 5684 5686 5688 5689 5690 5692 5694 5695 5696 5697 5698 5698 5699 5700 5700 5701 5702 5703 5704 5706 5708 5710 5712 5714 5716 5718 5720 5722 5725 5727 5729 5732 5734 5736 5739 5739 5741 5743 5744 5746 5747
5670 5672 5673 5674 5676 5678 5679 5680 5682 5683 5684 5685 5685 5686 5687 5687 5688 5689 5690 5691 5692 5694 5695 5697 5699 5701 5704 5706 5708 5710 5713 5715 5717 5720 5722 5725 5727 5729 5731 5732 5733 5735 5736
5659 5660 5662 5663 5665 5666 5667 5669 5670 5671 5672 5673 5673 5674 5675 5676 5676 5677 5678 5679 5680 5681 5683 5685 5687 5689 5691 5693 5695 5698 5700 5703 5705 5708 5710 5712 5715 5717 5720 5721 5722 5723 5724
5648 5649 5651 5652 5653 5654 5656 5657 5658 5659 5660 5660 5661 5661 5662 5663 5664 5664 5665 5666 5667 5669 5670 5672 5674 5676 5678 5681 5683 5685 5688 5690 5693 5695 5697 5700 5702 5704 5706 5709 5710 5711 5712
5637 5638 5639 5640 5641 5642 5643 5644 5645 5647 5647 5648 5648 5649 5650 5650 5651 5652 5653 5654 5655 5656 5657 5659 5661 5663 5666 5668 5670 5673 5675 5678 5680 5682 5685 5687 5689 5692 5693 5695 5697 5699 5700
5626 5626 5627 5628 5629 5630 5631 5632 5633 5634 5635 5635 5635 5636 5637 5638 5638 5639 5640 5641 5642 5643 5645 5646 5648 5650 5653 5656 5658 5660 5663 5665 5667 5670 5672 5674 5676 5678 5680 5682 5684 5686 5687
5614 5615 5615 5616 5617 5618 5619 5619 5620 5621 5622 5622 5623 5623 5624 5625 5626 5626 5627 5628 5629 5631 5632 5633 5635 5638 5640 5643 5645 5648 5650 5652 5654 5656 5659 5661 5663 5665 5667 5669 5671 5673 5675
5603 5603 5603 5604 5605 5606 5607 5607 5608 5609 5609 5609 5610 5610 5611 5612 5612 5613 5614 5615 5617 5618 5620 5621 5623 5625 5628 5630 5632 5635 5637 5639 5641 5643 5645 5647 5649 5651 5653 5655 5657 5659 5661
5591 5591 5592 5592 5593 5593 5594 5595 5595 5596 5596 5596 5597 5597 5597 5598 5599 5600 5601 5602 5604 5605 5607 5609 5611 5613 5615 5617 5619 5621 5623 5625 5627 5629 5631 5633 5635 5637 5639 5641 5642 5644 5646
5580 5580 5580 5580 5581 5581 5582 5582 5583 5583 5583 5583 5584 5584 5584 5584 5585 5586 5587 5589 5590 5592 5594 5596 5598 5600 5601 5603 5605 5607 5609 5612 5614 5615 5617 5619 5621 5623 5624 5626 5627 5629 5630
5568 5568 5569 5569 5569 5570 5570 5570 5571 5571 5571 5571 5571 5571 5571 5571 5572 5573 5574 5575 5577 5579 5581 5582 5584 5586 5588 5590 5592 5594 5596 5598 5599 5601 5602 5604 5606 5608 5610 5611 5612 5614 5615
5557 5557 5557 5557 5558 5558 5558 5558 5559 5559 5559 5558 5558 5559 5559 5559 5560 5560 5561 5562 5564 5565 5567 5569 5570 5572 5574 5575 5577 5579 5581 5583 5585 5586 5587 5589 5591 5593 5594 5596 5597 5598 5599
5547 5546 5546 5546 5546 5546 5546 5546 5547 5546 5546 5546 5546 5546 5547 5547 5547 5548 5548 5549 5549 5551 5553 5555 5556 5558 5559 5561 5562 5564 5566 5568 5570 5571 5572 5574 5575 5577 5578 5580 5581 5582 5583
5536 5535 5535 5535 5535 5535 5535 5534 5535 5534 5534 5534 5534 5534 5534 5534 5534 5535 5535 5535 5536 5537 5538 5540 5541 5543 5544 5546 5547 5549 5551 5552 5554 5555 5557 5558 5560 5561 5562 5564 5565 5565 5566
5525 5524 5524 5524 5524 5523 5523 5523 5523 5522 5522 5522 5522 5522 5522 5522 5521 5522 5522 5522 5523 5523 5524 5525 5527 5528 5529 5530 5531 5533 5535 5536 5538 5539 5541 5542 5544 5545 5546 5547 5548 5549 5550
5514 5514 5513 5513 5512 5512 5512 5512 5511 5511 5510 5510 5510 5510 5509 5509 5509 5509 5509 5509 5510 5510 5511 5511 5512 5513 5513 5514 5515 5516 5518 5520 5522 5523 5524 5526 5527 5528 5529 5530 5531 5532 5533
5504 5503 5503 5502 5502 5501 5501 5501 5500 5500 5500 5499 5499 5498 5498 5497 5497 5497 5497 5497 5497 5497 5497 5497 5498 5498 5499 5499 5499 5500 5502 5503 5505 5506 5508 5509 5510 5511 5512 5513 5515 5515 5516
5493 5493 5492 5492 5492 5491 5490 5490 5490 5489 5489 5488 5488 5487 5486 5486 5485 5485 5485 5484 5484 5484 5484 5484 5484 5484 5484 5484 5484 5484 5486 5487 5489 5490 5491 5492 5493 5495 5495 5497 5498 5499 5499
5483 5482 5482 5481 5481 5480 5479 5479 5479 5478 5478 5477 5476 5475 5475 5474 5473 5473 5472 5472 5472 5471 5471 5471 5470 5470 5470 5469 5469 5469 5470 5472 5473 5473 5474 5475 5476 5477 5478 5479 5481 5482 5482
5474 5472 5471 5471 5470 5469 5469 5468 5468 5467 5467 5466 5465 5464 5463 5462 5461 5461 5460 5460 5459 5459 5459 5458 5457 5456 5456 5455 5455 5455 5455 5455 5456 5456 5457 5458 5459 5460 5461 5462 5464 5465 5465
5464 5462 5461 5460 5459 5458 5458 5458 5457 5456 5455 5454 5454 5453 5452 5451 5450 5449 5448 5448 5447 5446 5446 5445 5444 5443 5442 5442 5441 5441 5440 5440 5440 5440 5441 5441 5442 5443 5444 5445 5446 5447 5448
5454 5452 5451 5450 5449 5448 5447 5446 5446 5445 5444 5443 5442 5441 5440 5439 5438 5438 5437 5436 5435 5434 5433 5433 5432 5431 5430 5429 5428 5427 5425 5424 5424 5424 5424 5425 5425 5426 5427 5428 5429 5430 5431
5444 5443 5442 5440 5439 5438 5436 5436 5435 5434 5433 5432 5431 5430 5429 5428 5427 5426 5425 5424 5423 5422 5421 5420 5419 5418 5416 5415 5414 5412 5411 5410 5410 5409 5409 5409 5409 5410 5411 5412 5412 5413 5414
5434 5433 5432 5431 5429 5428 5427 5425 5424 5423 5423 5422 5421 5420 5419 5417 5416 5415 5414 5413 5411 5410 5409 5408 5406 5405 5403 5401 5400 5398 5397 5396 5395 5394 5394 5394 5394 5394 5395 5395 5396 5397 5398
5425 5423 5422 5421 5419 5418 5417 5415 5414 5413 5412 5411 5410 5409 5408 5407 5406 5405 5403 5401 5400 5398 5396 5395 5393 5392 5390 5388 5387 5385 5384 5382 5381 5380 5380 5380 5379 5379 5379 5380 5381 5381 5382